Home   Weather   Dakar   Past weeks
Flag for Senegal

Past Weather in Dakar, Senegal — Yesterday and Last 2 Weeks

Now
77 °F

Sunny.


Feels Like: 79 °F
Forecast: N/A
Wind: 9 mph from North

Location: Dakar / Yoff

Current Time: Apr 25, 2019 at 4:14:11 pm

Latest Report: Apr 25, 2019 at 3:00 pm


Visibility: 10 mi

Pressure: 29.86 "Hg

Humidity: 69%

Dew Point: 66 °F

Location of DakarLocation

Past Weather in Dakar — Graph

°F

Dakar Temperature Yesterday

Maximum temperature yesterday: 75 °F (at 11:00 am)
Minimum temperature yesterday: 66 °F (at 6:00 am)
Average temperature yesterday: 72 °F

High & Low Weather Summary for the Past Weeks

 TemperatureHumidityPressure
High93 °F (Apr 18, 3:00 pm)100% (Apr 13, 3:00 am)29.95 "Hg (Apr 13, 3:00 am)
Low63 °F (Apr 13, 3:00 am)34% (Apr 18, 3:00 pm)29.80 "Hg (Apr 18, 3:00 pm)
Average70 °F83%29.89 "Hg
* Reported Apr 10 3:00 pm — Apr 25 3:00 pm, Dakar. Weather by CustomWeather, © 2019

Note: Actual official high and low records may vary slightly from our data, if they occured in-between our weather recording intervals... More about our weather records

Advertising

Dakar Weather History for the Previous 24 Hours

Scroll right to see more
 ConditionsComfort  
Time TempWeatherWind HumidityBarometerVisibility
3:00 pm
Thu, Apr 25
77 °FSunny.9 mph69%29.86 "Hg10 mi
2:00 pm77 °FSunny.9 mph65%29.89 "Hg10 mi
1:00 pm77 °FSunny.9 mph65%29.92 "Hg10 mi
11:00 am75 °FSunny.12 mph69%29.92 "Hg10 mi
10:00 am73 °FSunny.10 mph74%29.95 "Hg10 mi
9:00 am73 °FSunny.7 mph78%29.92 "Hg10 mi
8:00 am70 °FSunny.5 mph88%29.92 "Hg10 mi
7:00 am68 °FClear.5 mph88%29.92 "Hg5 mi
6:00 am68 °FClear.5 mph88%29.92 "Hg5 mi
3:00 am68 °FClear.9 mph94%29.89 "Hg5 mi
10:00 pm
Wed, Apr 24
70 °FClear.7 mph88%29.92 "Hg5 mi
9:00 pm70 °FClear.7 mph83%29.89 "Hg5 mi
8:00 pm72 °FClear.7 mph78%29.89 "Hg5 mi
7:00 pm72 °FSunny.9 mph78%29.86 "Hg10 mi
6:00 pm73 °FSunny.12 mph74%29.86 "Hg10 mi
5:00 pm75 °FSunny.12 mph69%29.86 "Hg10 mi
4:00 pm75 °FSunny.9 mph69%29.86 "Hg10 mi
Weather by CustomWeather, © 2019

See weather overview